Flag for U.S.A. Weather past 2 weeks in Provo, Utah, U.S.A.

Now
27 °F

Clear.


Feels Like: 21 °F
Forecast: 26 / 49 °F
Wind: 5 mph from Southeast

Location: Provo Municipal

Current Time: Mar 6, 2015 at 5:12:13 AM

Latest Report: Mar 6, 2015 at 4:35 AM


Visibility: 10 mi

Pressure: 30.44 "Hg

Humidity: 69%

Dew point: 18 °F

Location of ProvoLocation

Historic Weather in Provo — Graph

°F

Provo temperature yesterday

Maximum temperature yesterday: 45 °F (at 3:47 PM)
Minimum temperature yesterday: 21 °F (at 3:55 AM)
Average temperature yesterday: 30 °F

Past Weeks' High & Low Weather Summary

 TemperatureHumidityPressure
High55 °F (Feb 19, 3:48 PM)93% (Feb 21, 8:47 PM)30.47 "Hg (Feb 21, 8:47 PM)
Low21 °F (Feb 24, 5:15 AM)23% (Feb 24, 3:55 PM)29.61 "Hg (Mar 2, 3:54 PM)
Average33 °F67%30.03 "Hg
* Reported Feb 19 3:35 AM — Mar 6 3:55 AM, Provo, Weather by CustomWeather, © 2015

Note: Actual official high and low records may vary slightly from our data, if they occured in-between our weather recording intervals... More about our weather records

Advertising

Provo weather history for previous 24 hours

 ConditionsComfort  
Time TempWeatherWind HumidityBarometerVisibility
3:55 AM
Fri, Mar 6
28 °FClear.5 mph69%30.44 "Hg10 mi
3:35 AM27 °FClear.3 mph69%30.44 "Hg10 mi
3:15 AM28 °FClear.3 mph74%30.44 "Hg10 mi
2:55 AM27 °FClear.No wind80%30.44 "Hg10 mi
2:35 AM27 °FClear.No wind74%30.44 "Hg10 mi
2:15 AM30 °FClear.No wind69%30.44 "Hg10 mi
1:55 AM28 °FClear.No wind74%30.44 "Hg10 mi
1:35 AM27 °FClear.No wind74%30.44 "Hg10 mi
1:15 AM28 °FClear.No wind69%30.44 "Hg10 mi
12:55 AM28 °FClear.3 mph74%30.44 "Hg10 mi
12:35 AM28 °FClear.3 mph74%30.44 "Hg10 mi
12:15 AM28 °FClear.3 mph74%30.44 "Hg10 mi
11:55 PM
Thu, Mar 5
30 °FClear.No wind75%30.44 "Hg10 mi
11:35 PM32 °FClear.No wind69%30.45 "Hg10 mi
11:15 PM30 °FClear.No wind75%30.45 "Hg10 mi
10:55 PM32 °FClear.No wind64%30.44 "Hg10 mi
10:35 PM30 °FClear.5 mph75%30.44 "Hg10 mi
10:15 PM32 °FClear.No wind75%30.44 "Hg10 mi
9:55 PM32 °FClear.No wind64%30.44 "Hg10 mi
9:35 PM34 °FClear.5 mph70%30.44 "Hg10 mi
9:15 PM34 °FClear.7 mph65%30.44 "Hg10 mi
8:52 PM36 °FPassing clouds.No wind65%30.44 "Hg15 mi
7:59 PM36 °FPassing clouds.No wind52%30.43 "Hg15 mi
6:57 PM37 °FPassing clouds.No wind52%30.42 "Hg15 mi
5:47 PM43 °FPassing clouds.No wind42%30.42 "Hg15 mi
4:57 PM43 °FPassing clouds.3 mph39%30.42 "Hg15 mi
3:47 PM45 °FScattered clouds.5 mph42%30.42 "Hg15 mi
2:47 PM43 °FScattered clouds.5 mph53%30.42 "Hg15 mi
1:58 PM43 °FPartly sunny.5 mph49%30.42 "Hg15 mi
12:50 PM39 °FPartly sunny.5 mph48%30.45 "Hg15 mi
11:49 AM36 °FPartly sunny.5 mph56%30.47 "Hg15 mi
10:59 AM36 °FPartly sunny.5 mph52%30.47 "Hg15 mi
9:50 AM34 °FSunny.6 mph51%30.47 "Hg15 mi
8:55 AM28 °FSunny.6 mph69%30.46 "Hg15 mi
7:50 AM25 °FSunny.7 mph74%30.45 "Hg10 mi
6:49 AM21 °FClear.No wind74%30.41 "Hg10 mi
6:35 AM21 °FClear.No wind80%30.41 "Hg10 mi
6:15 AM21 °FClear.3 mph80%30.41 "Hg10 mi
5:55 AM25 °FClear.5 mph74%30.40 "Hg10 mi
5:35 AM21 °FClear.7 mph86%30.40 "Hg10 mi
5:15 AM23 °FClear.5 mph74%30.40 "Hg10 mi
Weather by CustomWeather, © 2015

See weather overviewHow to use our weather pages